{"data":{"norad_id":45433,"epoch":"2026-05-25T03:27:27.612576Z","epoch_age_seconds":59667,"freshness":"FRESH","line1":"1 45433U 20020K   26145.14406959 -.00000294  00000+0 -86621-3 0  9991","line2":"2 45433  87.8907  25.6514 0001611  83.4798 276.6513 13.11415997299664","mean_motion":13.11415997,"eccentricity":0.0001611,"inclination_deg":87.8907,"raan_deg":25.6514,"arg_perigee_deg":83.4798,"mean_anomaly_deg":276.6513,"bstar":-0.00086621,"rev_number":29966,"period_min":109.80497441652,"perigee_km":1216.4626718215,"apogee_km":1218.9100461078,"semimajor_km":7595.8233589646,"source":"CELESTRAK","updated_at":"2026-05-25T13:38:22.342678Z"}}